Probability
100 94 87 19 0 0 0 0 0 0 0 0 0 0 0 0 0 0 0 0 0 35 94 100 100 100 100 100 100 97 97 94 94 94 94 94 90 84 87 84 90 94 94 97 97 100 100 100 100
97 94 48 3 0 0 0 0 0 0 0 0 0 0 0 0 13 6 3 6 16 65 100 100 100 100 100 100 100 97 94 94 97 94 90 84 81 74 74 71 77 81 87 87 90 97 100 100 100
94 90 26 0 0 0 0 0 0 0 0 0 0 0 0 6 35 13 10 6 35 71 97 100 100 100 100 100 97 97 90 87 90 90 84 74 74 71 65 61 58 65 71 74 87 90 97 100 100
87 13 0 0 0 0 0 0 0 0 0 0 0 0 0 3 32 29 19 10 39 81 90 100 100 100 100 100 97 94 94 87 84 74 71 65 61 48 45 42 42 52 61 61 68 81 87 94 100
6 0 0 0 0 0 0 0 0 0 0 0 0 0 0 26 35 39 32 19 35 77 94 100 100 100 100 100 97 97 94 90 77 68 65 61 48 29 32 39 32 32 45 52 61 71 68 77 84
0 0 0 0 0 0 0 0 0 0 0 0 0 0 0 39 42 42 29 19 39 77 94 100 100 100 100 100 97 97 97 84 71 74 71 65 52 35 26 29 26 32 35 35 55 55 71 71 84
0 0 0 0 0 0 0 0 0 0 0 0 0 0 3 42 45 35 23 13 39 74 87 97 100 100 100 97 97 97 97 94 81 81 77 71 65 48 26 19 13 19 19 23 35 45 45 55 77
0 0 0 0 0 0 0 0 0 0 0 0 0 0 0 29 39 26 29 23 29 48 77 90 94 97 97 97 97 97 97 97 97 94 81 74 71 58 32 32 16 13 16 19 13 29 35 45 65
0 0 0 0 0 0 0 0 0 0 0 0 0 0 0 23 29 26 32 42 32 42 58 71 77 84 87 94 97 97 97 97 97 97 94 87 42 19 19 26 26 10 13 10 16 16 19 23 23
0 0 0 0 0 0 0 0 0 0 0 0 0 0 10 13 13 19 32 26 45 48 52 61 65 71 74 87 90 94 97 90 90 81 71 55 10 3 6 13 26 23 10 10 23 13 10 0 0
0 0 0 0 0 0 0 0 0 0 0 0 0 0 0 3 6 13 10 16 19 23 39 58 48 58 61 61 48 55 68 61 55 45 35 26 0 0 3 0 6 6 10 6 6 3 0 0 0
0 0 0 0 0 0 0 0 0 0 0 0 0 0 0 0 0 0 0 3 6 10 13 39 48 45 42 55 35 32 35 32 35 32 23 10 3 0 0 0 0 0 0 0 0 0 0 0 0
0 0 0 0 0 0 0 0 0 0 0 0 0 0 0 0 0 0 0 0 0 3 3 10 32 16 16 19 16 26 45 39 26 26 13 6 3 0 0 0 0 0 0 0 0 0 0 0 0
0 0 0 0 0 0 0 0 0 0 0 0 0 0 0 0 0 0 0 0 0 0 0 3 13 26 13 10 10 6 23 29 13 16 16 13 10 3 0 0 0 0 0 0 0 0 0 0 0
0 0 0 0 0 0 0 0 0 0 0 0 0 0 0 0 0 0 0 0 0 0 0 0 0 16 19 10 6 13 19 16 16 13 10 13 13 0 0 0 0 0 0 0 0 0 0 0 0
0 0 0 0 0 0 0 0 0 0 0 0 0 0 0 0 0 0 0 0 0 0 0 0 0 3 13 10 19 19 26 16 13 13 3 3 6 0 0 0 0 0 0 0 0 0 0 0 0
0 0 0 0 0 0 0 0 0 0 0 0 0 0 0 0 0 0 0 0 0 0 0 0 0 0 0 10 6 19 26 26 6 6 6 3 3 3 0 0 0 0 0 0 0 0 0 0 0
0 0 0 0 0 0 0 0 0 0 0 0 0 0 0 0 0 0 0 0 0 0 0 0 0 0 0 0 6 10 26 26 19 10 10 6 0 3 3 0 0 0 0 0 0 0 0 0 0
0 0 0 0 0 0 0 0 0 0 0 0 0 0 0 0 0 0 0 0 0 0 0 0 0 0 0 0 0 6 10 13 19 10 10 13 10 0 3 0 0 0 0 0 0 0 0 0 0
0 0 0 0 0 0 0 0 0 0 0 0 0 0 0 0 0 0 0 0 0 0 0 0 0 0 0 0 0 0 3 10 10 10 6 6 3 6 6 3 0 0 0 0 0 0 0 0 0
0 0 0 0 0 0 0 0 0 0 0 0 0 0 0 0 0 0 0 0 0 0 0 0 0 0 0 0 0 3 3 3 3 6 6 6 6 3 10 3 0 0 0 0 0 0 0 0 0
0 0 0 0 0 0 0 0 0 0 0 0 0 0 0 0 0 0 0 0 0 0 0 0 0 0 0 0 0 3 3 3 3 6 10 6 3 3 3 0 0 0 0 0 0 0 0 0 0
0 0 0 0 0 0 0 0 0 0 0 0 0 0 0 0 0 0 0 0 0 0 0 0 0 0 0 0 0 3 3 0 0 3 6 6 3 3 3 0 0 0 0 0 0 0 0 0 0
0 0 0 0 0 0 0 0 0 0 0 0 0 0 0 0 0 0 0 0 0 0 0 0 0 0 0 0 0 3 3 3 3 0 3 6 6 3 3 0 0 0 0 0 0 0 0 0 0
0 0 0 0 0 0 0 0 0 0 0 0 0 0 0 0 0 0 0 0 0 0 0 0 0 0 0 0 0 0 3 6 3 0 3 3 6 3 0 0 0 0 0 0 0 0 0 0 0
0 0 0 0 0 0 0 0 0 0 0 0 0 0 0 0 0 0 0 0 0 0 0 0 0 0 3 0 0 0 3 3 6 6 6 10 6 0 0 0 0 0 0 0 0 0 0 0 0
0 0 0 0 0 0 0 0 0 0 0 0 0 0 0 0 0 0 0 0 0 0 0 0 0 0 0 3 3 0 0 3 6 6 6 3 0 0 0 3 0 0 0 0 0 0 0 0 0
0 0 0 0 0 0 0 0 0 0 0 0 0 0 0 0 0 0 0 0 0 0 0 0 0 0 0 0 0 0 3 3 0 0 0 0 0 0 0 0 0 0 0 0 0 0 0 0 0
0 0 0 0 0 0 0 0 0 0 0 0 0 0 0 0 0 0 0 0 0 0 0 0 0 0 0 0 0 0 0 0 0 0 0 0 0 0 0 0 0 0 0 0 0 0 0 0 0
0 0 0 0 0 0 0 0 0 0 0 0 0 0 0 0 0 0 0 0 0 0 0 0 0 0 0 0 0 0 0 0 0 0 0 0 0 0 0 0 0 0 0 0 0 0 0 0 0
Height
5915 5915 5915 5916 5915 5914 5913 5913 5912 5911 5910 5910 5909 5909 5910 5910 5911 5913 5911 5910 5910 5910 5910 5910 5909 5909 5908 5907 5907 5906 5906 5905 5905 5905 5905 5905 5905 5905 5905 5905 5906 5906 5907 5907 5908 5908 5909 5910 5910
5916 5917 5918 5917 5916 5916 5916 5914 5913 5913 5912 5911 5911 5911 5911 5911 5911 5912 5911 5911 5911 5911 5911 5911 5911 5910 5910 5909 5908 5907 5907 5907 5906 5906 5906 5906 5906 5906 5906 5906 5906 5906 5907 5907 5908 5908 5908 5909 5910
5918 5918 5919 5918 5917 5917 5917 5916 5915 5914 5914 5913 5913 5913 5913 5913 5913 5912 5913 5912 5912 5912 5912 5912 5912 5911 5911 5910 5909 5909 5908 5908 5908 5907 5907 5907 5907 5907 5906 5906 5906 5906 5907 5907 5907 5908 5908 5908 5909
5919 5920 5920 5920 5919 5919 5918 5918 5917 5916 5915 5915 5915 5914 5914 5914 5914 5914 5913 5913 5913 5913 5913 5913 5912 5912 5911 5911 5910 5910 5909 5909 5909 5908 5908 5908 5908 5907 5907 5907 5907 5907 5906 5906 5907 5907 5907 5908 5908
5920 5921 5921 5920 5920 5920 5919 5919 5918 5917 5917 5916 5916 5915 5915 5915 5914 5914 5914 5914 5914 5914 5913 5913 5913 5912 5912 5911 5911 5910 5910 5910 5909 5909 5909 5909 5908 5908 5908 5907 5907 5907 5907 5907 5907 5907 5907 5907 5907
5921 5921 5921 5921 5921 5921 5921 5920 5919 5918 5918 5917 5917 5916 5915 5915 5915 5914 5914 5914 5914 5914 5913 5913 5912 5912 5911 5911 5911 5910 5910 5910 5909 5909 5909 5909 5909 5908 5908 5908 5907 5907 5907 5907 5906 5907 5907 5907 5907
5922 5921 5921 5921 5921 5921 5921 5920 5919 5919 5918 5918 5917 5917 5916 5915 5915 5914 5914 5913 5913 5913 5913 5912 5912 5911 5911 5910 5910 5910 5909 5909 5909 5909 5909 5909 5908 5908 5908 5908 5907 5907 5907 5906 5906 5906 5906 5906 5906
5920 5922 5921 5920 5920 5920 5920 5920 5919 5919 5918 5918 5917 5916 5916 5915 5915 5914 5913 5913 5912 5912 5912 5911 5911 5910 5910 5909 5909 5908 5908 5908 5908 5908 5908 5907 5907 5907 5907 5907 5907 5906 5906 5906 5906 5906 5905 5905 5905
5920 5921 5920 5920 5919 5919 5919 5919 5918 5918 5917 5916 5916 5916 5915 5914 5913 5913 5912 5912 5911 5911 5910 5909 5909 5908 5908 5907 5907 5906 5906 5906 5906 5906 5906 5906 5906 5906 5906 5906 5905 5905 5905 5905 5905 5905 5905 5905 5905
5919 5919 5919 5919 5918 5917 5917 5917 5917 5917 5916 5915 5915 5914 5914 5913 5912 5911 5910 5910 5909 5908 5907 5906 5906 5906 5905 5905 5904 5904 5904 5903 5903 5903 5903 5903 5903 5904 5904 5904 5904 5904 5904 5904 5904 5904 5904 5904 5904
5918 5918 5917 5917 5916 5915 5915 5916 5915 5914 5914 5913 5912 5912 5911 5911 5910 5909 5908 5907 5906 5905 5904 5903 5902 5902 5902 5901 5901 5901 5901 5900 5900 5900 5900 5900 5901 5901 5901 5901 5901 5901 5901 5902 5902 5902 5902 5902 5902
5916 5916 5915 5915 5915 5914 5913 5913 5912 5911 5911 5910 5909 5908 5908 5907 5906 5905 5904 5903 5902 5901 5900 5899 5898 5898 5897 5897 5897 5897 5897 5896 5896 5896 5896 5897 5897 5897 5898 5898 5898 5899 5899 5899 5899 5900 5900 5900 5900
5914 5914 5913 5913 5913 5912 5910 5910 5909 5908 5907 5906 5905 5904 5903 5902 5901 5900 5899 5898 5897 5895 5894 5894 5893 5892 5892 5892 5892 5891 5891 5891 5891 5892 5892 5892 5893 5893 5894 5894 5895 5895 5895 5896 5896 5897 5897 5898 5898
5912 5912 5911 5911 5910 5909 5908 5907 5906 5904 5902 5902 5900 5898 5897 5896 5895 5893 5892 5891 5890 5889 5888 5887 5886 5886 5885 5885 5885 5885 5885 5885 5886 5886 5886 5887 5888 5889 5889 5890 5891 5891 5892 5892 5892 5893 5894 5895 5895
5910 5910 5909 5908 5907 5905 5904 5903 5900 5899 5897 5896 5894 5892 5891 5889 5887 5886 5884 5883 5882 5881 5880 5879 5878 5878 5878 5878 5878 5878 5878 5878 5879 5879 5880 5881 5882 5883 5884 5885 5886 5887 5887 5888 5888 5889 5890 5891 5892
5908 5907 5906 5905 5903 5901 5901 5898 5896 5893 5892 5890 5887 5885 5883 5881 5879 5877 5875 5874 5873 5872 5871 5870 5870 5869 5870 5870 5870 5870 5870 5871 5871 5872 5873 5874 5876 5877 5878 5879 5880 5881 5882 5883 5884 5885 5886 5887 5888
5905 5904 5902 5901 5898 5897 5895 5892 5890 5888 5886 5883 5881 5878 5875 5873 5871 5868 5866 5864 5863 5862 5861 5860 5859 5859 5860 5861 5861 5862 5863 5863 5863 5864 5865 5867 5868 5870 5871 5872 5874 5875 5876 5878 5879 5880 5881 5882 5883
5902 5900 5899 5897 5894 5892 5889 5886 5884 5882 5879 5876 5873 5870 5867 5864 5861 5859 5856 5854 5852 5851 5850 5849 5848 5848 5849 5850 5851 5852 5853 5855 5856 5857 5858 5859 5861 5863 5864 5865 5867 5868 5870 5872 5873 5875 5876 5877 5878
5898 5897 5895 5892 5890 5887 5884 5881 5878 5875 5872 5869 5866 5862 5859 5855 5852 5849 5846 5844 5842 5839 5838 5837 5836 5837 5838 5839 5840 5842 5844 5846 5848 5849 5850 5851 5852 5854 5856 5858 5859 5861 5863 5865 5867 5869 5870 5872 5873
5895 5893 5891 5888 5885 5882 5879 5876 5873 5869 5866 5862 5858 5854 5851 5847 5843 5840 5837 5834 5831 5829 5826 5824 5824 5824 5825 5826 5828 5830 5832 5835 5838 5840 5841 5842 5843 5845 5847 5850 5852 5854 5856 5858 5860 5862 5864 5865 5867
5892 5890 5887 5884 5881 5877 5874 5871 5867 5863 5859 5855 5851 5847 5843 5839 5835 5831 5828 5824 5821 5818 5815 5813 5812 5811 5812 5813 5815 5818 5820 5824 5827 5830 5832 5834 5835 5837 5839 5842 5844 5846 5849 5851 5853 5855 5857 5859 5861
5889 5886 5883 5880 5876 5873 5870 5866 5862 5857 5853 5849 5845 5840 5836 5831 5827 5823 5819 5815 5812 5809 5805 5803 5801 5800 5800 5801 5803 5806 5808 5812 5815 5818 5821 5825 5828 5830 5832 5834 5836 5839 5842 5844 5846 5848 5850 5852 5854
5886 5883 5880 5876 5873 5869 5865 5861 5858 5852 5848 5844 5839 5834 5829 5825 5820 5816 5811 5808 5804 5801 5798 5795 5792 5791 5790 5791 5792 5794 5797 5800 5803 5807 5811 5815 5818 5821 5823 5826 5829 5831 5834 5836 5838 5840 5843 5845 5847
5884 5881 5877 5873 5869 5865 5861 5857 5852 5848 5843 5839 5834 5829 5823 5819 5814 5809 5805 5801 5798 5794 5791 5788 5785 5783 5782 5782 5783 5784 5786 5789 5792 5796 5800 5805 5809 5812 5815 5818 5821 5823 5825 5828 5830 5832 5835 5837 5839
5882 5879 5875 5870 5866 5862 5857 5852 5848 5843 5838 5834 5829 5824 5819 5814 5809 5804 5800 5796 5793 5789 5786 5782 5779 5777 5776 5775 5775 5775 5777 5779 5783 5786 5791 5795 5799 5803 5806 5809 5813 5815 5817 5819 5822 5825 5827 5829 5831
5880 5877 5873 5868 5862 5858 5853 5848 5845 5839 5834 5829 5824 5819 5814 5809 5805 5801 5796 5792 5789 5786 5782 5779 5775 5773 5771 5770 5769 5769 5770 5772 5775 5778 5783 5786 5790 5794 5797 5801 5804 5807 5809 5812 5814 5817 5819 5821 5823
5878 5874 5870 5865 5859 5855 5850 5845 5840 5835 5831 5826 5821 5816 5811 5807 5802 5798 5794 5789 5786 5783 5779 5776 5773 5770 5768 5766 5765 5764 5765 5766 5769 5772 5775 5779 5782 5786 5789 5792 5795 5798 5801 5803 5806 5808 5810 5813 5815
5877 5873 5868 5862 5857 5852 5848 5843 5838 5833 5828 5823 5819 5814 5810 5805 5800 5796 5792 5788 5784 5781 5778 5774 5771 5768 5766 5764 5762 5762 5762 5763 5765 5767 5769 5772 5775 5778 5781 5784 5786 5789 5792 5794 5797 5799 5802 5804 5807
5876 5871 5866 5861 5856 5851 5846 5844 5836 5831 5826 5821 5817 5812 5808 5804 5799 5795 5791 5787 5783 5780 5777 5774 5770 5768 5766 5764 5762 5761 5761 5761 5762 5764 5765 5768 5770 5773 5775 5777 5779 5781 5784 5786 5788 5791 5794 5796 5799
5875 5870 5865 5861 5855 5850 5845 5843 5835 5830 5825 5820 5816 5811 5808 5803 5800 5796 5792 5788 5784 5780 5777 5773 5770 5768 5766 5764 5762 5760 5760 5760 5761 5761 5763 5764 5766 5768 5769 5771 5773 5774 5777 5779 5781 5784 5786 5788 5791
Wind_Speed
10 10 10 10 10 11 10 10 11 12 11 11 10 10 8 7 7 7 8 9 9 9 9 9 10 11 12 12 13 13 13 12 12 12 10 9 8 7 6 4 3 2 1 1 1 3 5 7 8
8 8 9 10 10 9 9 9 10 10 11 10 10 10 9 8 7 7 6 7 8 8 8 8 8 9 10 11 11 12 12 12 12 11 11 10 8 7 6 5 4 2 1 0 1 2 3 5 7
6 7 9 9 9 8 7 8 8 9 10 10 10 9 9 8 6 5 5 5 6 6 6 6 7 7 8 8 9 10 10 10 11 11 10 9 8 7 6 5 4 3 2 1 1 1 2 4 5
5 6 7 8 7 7 6 7 7 8 10 10 9 9 8 7 5 4 3 3 3 4 4 4 5 5 6 6 7 8 8 9 9 9 9 9 8 7 7 6 5 4 3 2 2 2 2 3 4
4 4 6 6 6 6 6 6 7 8 9 9 8 8 7 7 5 3 2 1 1 1 1 2 2 3 4 4 4 5 6 6 7 7 7 8 8 7 7 6 5 5 4 4 3 2 2 3 4
3 4 5 5 4 4 5 5 5 7 7 7 7 7 7 6 5 3 2 1 1 1 1 1 1 1 2 2 3 3 4 4 5 5 6 6 6 6 6 6 6 5 5 5 4 3 2 2 3
4 5 4 4 4 4 4 4 3 5 5 5 6 6 6 6 5 4 4 3 3 4 4 4 4 4 3 4 4 3 4 4 4 4 5 5 5 5 5 5 5 5 5 5 4 4 3 2 2
6 6 4 4 4 4 5 4 4 4 4 5 6 6 6 6 6 6 6 6 6 6 7 7 7 6 6 6 6 6 6 6 6 6 6 6 5 5 5 5 5 5 5 4 4 4 3 3 2
7 7 7 6 7 7 7 7 7 7 7 7 8 8 8 8 8 8 8 9 9 9 10 10 10 9 9 9 9 9 9 8 8 8 7 7 7 7 6 6 6 5 5 5 4 4 3 3 3
8 8 9 9 9 10 10 11 12 11 11 11 11 11 11 11 11 11 12 12 12 12 12 12 12 12 12 12 12 12 12 11 11 11 10 9 9 9 9 8 7 7 6 6 5 4 4 3 4
9 10 11 12 13 14 15 16 15 15 15 15 15 14 15 15 15 15 16 16 16 16 16 16 15 16 15 15 15 15 15 15 14 14 13 12 12 11 11 10 10 9 8 8 7 6 5 5 5
11 12 14 14 16 17 18 18 18 18 18 18 18 18 18 18 18 18 19 19 20 20 20 20 20 19 19 19 19 18 18 18 18 17 16 15 14 14 13 13 12 11 11 10 9 9 8 7 6
12 14 15 16 18 19 20 21 21 21 21 21 21 22 22 22 22 23 23 23 23 23 24 23 23 23 23 22 22 22 21 21 20 20 19 18 17 16 16 15 15 14 13 13 12 11 10 10 9
14 16 17 18 20 21 22 23 23 24 24 24 24 25 26 27 27 28 28 29 29 29 28 28 28 27 27 26 26 26 24 24 24 23 22 21 20 19 18 18 17 17 16 15 14 13 13 12 12
15 17 18 19 21 22 24 25 25 26 27 27 28 28 29 30 31 32 32 33 33 33 33 33 32 31 31 30 29 29 28 28 26 26 25 24 23 22 21 20 20 19 18 17 16 15 15 15 14
17 18 20 21 23 24 26 27 27 28 28 29 30 31 32 33 34 34 35 35 36 37 37 37 37 37 36 35 34 32 31 31 30 29 27 26 25 24 24 23 21 20 20 19 18 17 17 17 16
18 20 21 23 24 26 27 28 28 28 29 29 31 32 33 34 35 36 36 37 37 38 39 40 41 41 41 40 39 38 35 33 32 31 30 28 27 26 26 25 24 22 21 21 20 19 18 18 18
19 21 22 24 25 26 27 28 28 28 29 30 31 32 33 35 35 37 38 39 40 41 42 43 43 43 43 43 43 42 40 37 35 34 32 31 30 28 27 27 26 24 23 22 22 22 21 19 19
19 21 23 24 24 25 26 27 28 28 29 30 31 32 34 35 37 38 38 39 39 40 41 43 44 45 45 45 45 45 44 42 40 37 36 35 34 32 30 29 28 27 26 24 24 23 22 21 21
19 20 22 23 23 25 26 27 28 28 29 30 32 33 34 34 36 36 37 37 38 39 40 41 43 44 45 46 46 46 46 45 44 40 37 36 35 36 34 31 30 29 27 25 24 24 24 24 23
18 19 20 21 23 23 25 25 26 27 29 30 31 32 33 33 34 34 36 37 38 38 38 39 40 42 43 44 44 45 47 47 46 45 42 39 38 36 34 34 31 28 27 26 26 26 26 25 25
16 18 19 20 22 23 24 25 26 27 28 29 30 31 32 33 32 33 33 34 34 34 34 35 35 36 39 41 41 42 43 45 46 47 45 43 41 39 37 34 32 30 29 29 28 27 26 27 27
15 17 18 20 21 23 23 25 25 26 27 28 29 30 31 30 30 30 30 29 29 28 29 30 31 32 33 35 37 39 39 41 43 44 44 43 42 40 38 35 33 31 31 30 29 29 28 28 28
15 17 18 19 21 22 23 24 25 25 26 26 27 27 28 28 27 27 26 26 26 26 26 26 27 28 29 31 33 34 35 37 38 39 40 40 40 39 38 37 34 33 31 30 29 29 29 29 30
15 17 19 21 21 22 23 24 24 24 24 24 24 25 25 25 24 24 23 22 22 22 22 22 22 23 23 25 27 29 29 30 31 33 34 35 35 35 34 34 34 33 31 29 30 30 30 30 31
16 18 20 21 22 22 22 22 22 22 22 23 24 24 24 23 22 21 20 20 20 19 19 19 19 18 18 20 21 22 22 23 25 27 29 30 31 31 31 31 32 31 31 30 30 30 31 32 32
16 18 20 21 22 21 21 22 21 21 22 22 22 22 22 22 21 20 19 18 17 16 16 16 15 15 14 15 15 15 15 17 20 22 24 27 28 29 29 30 31 31 32 31 31 31 31 31 30
17 19 20 21 21 21 21 21 21 21 22 21 20 20 20 20 19 18 18 17 15 14 14 14 13 13 12 12 10 10 10 12 14 16 19 22 24 25 26 28 30 31 31 31 31 31 30 31 31
18 19 20 20 21 22 22 21 21 21 21 20 20 19 19 19 17 17 17 17 15 15 14 13 13 11 10 9 7 7 7 8 9 11 14 17 19 21 24 25 26 28 28 29 29 29 29 29 28
18 20 20 21 21 22 22 21 21 20 20 20 19 18 18 18 18 18 18 18 17 16 15 15 13 12 10 9 7 5 4 5 6 8 9 12 14 17 19 20 22 24 24 24 25 26 29 28 27
Wind_Direction
46 44 45 45 48 45 45 50 51 51 50 51 53 57 61 69 76 81 82 81 79 75 71 70 68 66 65 64 65 65 64 63 62 63 65 66 68 69 70 73 80 91 117 188 221 226 231 234 236
44 39 41 39 41 37 40 45 51 50 48 48 48 52 59 66 74 81 81 81 79 74 68 66 65 63 62 60 60 59 59 58 58 57 59 61 62 62 61 62 63 63 61 50 251 247 241 239 240
37 38 36 34 32 29 35 44 49 48 46 44 43 48 57 63 67 73 76 80 80 74 66 62 61 59 58 56 56 55 53 52 52 52 52 54 55 54 54 53 51 48 39 16 338 294 264 249 247
29 31 32 29 20 21 28 40 48 48 43 38 37 42 49 53 56 61 67 78 82 75 64 57 56 54 51 50 49 47 45 44 43 42 42 43 44 45 45 43 39 36 31 20 359 330 295 266 257
6 17 23 24 19 23 22 31 41 44 39 32 29 32 38 41 40 38 41 50 76 81 57 40 40 39 37 37 35 33 31 31 31 30 30 31 31 33 34 33 30 28 24 20 11 352 317 288 264
336 353 15 21 10 14 17 19 28 33 28 21 14 14 21 25 21 13 354 331 293 269 263 273 302 326 340 349 357 359 1 5 7 8 10 14 15 17 19 19 19 20 19 16 12 3 340 307 282
315 334 354 2 355 354 2 8 9 10 8 1 356 351 354 359 353 338 315 294 277 267 264 264 268 276 279 285 291 301 308 316 324 330 335 343 349 352 356 359 360 4 7 8 7 5 358 333 300
304 316 324 329 314 314 325 328 325 326 326 321 320 319 322 329 326 317 304 290 277 268 265 266 266 267 269 270 270 274 279 284 290 296 303 309 315 321 326 331 337 340 344 349 353 356 357 349 325
293 301 303 303 298 291 298 302 303 302 300 300 299 299 302 305 306 302 295 288 280 273 269 268 266 267 268 268 266 266 268 271 275 279 283 288 293 296 299 304 310 315 320 325 332 338 342 338 330
279 285 287 291 288 284 292 298 297 295 294 294 292 290 291 292 292 291 289 285 281 275 270 267 265 265 266 266 265 264 263 265 268 271 273 275 278 281 284 286 289 293 298 302 306 310 315 315 315
270 276 279 281 281 284 292 297 295 294 293 292 291 289 287 286 284 283 283 282 280 277 272 267 267 264 263 263 264 264 262 262 264 266 268 269 270 272 274 277 278 281 283 285 287 289 292 294 297
267 272 276 278 282 287 293 294 293 292 290 290 289 287 284 281 279 277 275 274 274 273 272 269 268 266 263 261 260 260 260 260 260 261 263 264 265 267 267 269 271 273 275 276 275 278 280 281 284
267 273 278 281 283 286 289 291 290 291 291 291 290 288 284 281 277 274 272 270 269 268 267 266 266 266 263 261 260 256 255 256 258 258 258 259 261 264 264 264 265 267 269 270 269 270 273 274 275
273 278 280 282 285 286 287 288 288 290 291 290 288 285 283 282 279 277 273 270 268 266 264 263 262 262 262 260 258 255 253 253 254 255 256 258 260 262 263 262 262 263 265 266 267 267 268 269 270
277 281 282 283 285 287 288 288 289 289 290 289 287 284 281 280 279 277 275 273 269 266 264 262 260 258 258 257 255 254 253 252 253 254 254 255 256 258 260 260 260 261 263 264 265 266 266 266 266
280 282 284 286 288 289 290 290 291 291 291 289 288 285 282 281 280 278 276 274 271 268 265 263 261 259 258 257 255 254 252 251 250 253 254 254 255 255 257 258 258 258 260 262 263 265 264 263 263
282 284 287 289 291 292 292 293 293 293 291 290 289 287 286 284 282 279 278 277 275 272 269 267 265 262 259 257 256 255 253 253 251 250 252 253 255 256 255 256 257 256 256 258 260 262 262 260 260
285 288 290 292 293 294 295 295 296 295 294 293 292 291 288 286 284 282 281 279 277 275 273 269 266 265 262 259 257 256 254 254 252 250 251 252 252 254 254 253 254 254 253 256 257 258 258 258 258
290 293 295 296 296 296 297 297 297 296 295 295 295 294 291 289 287 285 283 282 281 279 276 272 268 265 263 260 258 257 255 253 252 251 252 253 253 253 253 250 250 250 251 254 254 255 257 257 258
294 296 297 297 298 298 299 298 298 297 297 297 297 297 294 291 290 288 286 284 283 282 279 274 270 267 265 262 259 256 254 253 252 251 249 250 251 251 250 248 249 250 249 250 252 252 255 256 257
298 300 302 302 302 302 302 301 301 300 300 299 299 299 297 294 293 291 288 285 285 285 282 278 274 269 266 264 260 257 254 252 252 251 250 250 252 251 250 250 249 248 249 249 249 249 252 255 256
307 309 308 308 307 307 307 305 305 304 303 303 303 301 299 299 297 295 292 290 288 288 285 281 278 274 268 264 261 258 255 253 251 250 251 251 252 251 251 248 248 248 248 248 249 249 249 252 254
313 313 313 313 312 312 312 309 309 308 307 307 307 305 304 303 301 299 297 294 292 292 290 286 283 278 271 264 261 258 256 254 252 249 249 250 251 252 253 254 253 250 249 249 250 250 249 251 251
319 319 318 318 317 316 316 313 312 311 310 310 311 311 311 309 305 304 301 299 297 297 296 290 287 282 276 270 267 262 258 255 252 249 248 249 250 251 253 254 255 255 253 252 250 248 247 249 250
328 327 325 324 323 321 321 318 317 314 315 316 316 316 316 316 315 313 308 305 304 304 302 300 296 289 281 277 272 267 261 256 252 248 247 247 249 250 250 250 252 254 253 253 251 249 250 252 250
335 334 332 331 329 327 326 324 323 322 321 322 323 325 325 325 323 323 320 314 311 311 309 309 304 298 291 286 277 269 260 255 249 245 244 245 247 248 249 249 249 252 253 255 254 251 253 253 251
341 339 337 336 335 334 334 332 329 327 327 329 332 334 335 333 330 331 332 327 323 321 319 320 317 313 303 296 288 276 264 252 248 244 242 243 245 247 248 248 250 252 253 255 256 255 257 254 252
345 344 343 344 344 342 340 339 337 334 334 336 338 338 340 342 343 343 342 339 336 334 332 331 329 325 321 312 298 285 265 250 245 242 240 242 243 243 245 248 250 252 253 255 254 255 255 253 250
351 349 349 348 348 346 345 344 343 342 341 341 343 344 348 353 357 359 360 359 355 350 346 344 341 337 334 331 318 299 280 259 248 243 240 241 243 245 246 248 249 249 250 251 251 251 248 249 247
356 354 354 354 352 350 348 349 349 349 348 349 351 354 359 2 6 8 9 8 6 3 1 359 357 353 349 349 347 333 311 282 264 252 247 244 244 245 246 248 248 248 248 248 247 246 245 246 246